Flag for Greece Weather past 2 weeks in Thessaloniki, Greece

Now
66 °F

Passing clouds.


Feels Like: 66 °F
Forecast: 66 / 76 °F
Wind: No wind

Location: Thessaloniki Airport

Current Time: Sep 3, 2014 at 1:17:30 AM

Latest Report: Sep 3, 2014 at 12:20 AM


Visibility: N/A

Pressure: 29.68 "Hg

Humidity: 88%

Dew point: 63 °F

Location of ThessalonikiLocation

Historic Weather in Thessaloniki — Graph

°F

Thessaloniki temperature yesterday

Maximum temperature yesterday: 82 °F (at 3:50 PM)
Minimum temperature yesterday: 64 °F (at 7:20 PM)
Average temperature yesterday: 73 °F

Past Weeks' High & Low Weather Summary

 TemperatureHumidityPressure
High97 °F (Aug 24, 3:50 PM)100% (Aug 29, 9:50 PM)30.07 "Hg (Aug 29, 9:50 PM)
Low63 °F (Aug 19, 5:50 AM)17% (Aug 24, 4:50 PM)29.62 "Hg (Sep 2, 4:20 PM)
Average78 °F60%29.90 "Hg
* Reported Aug 18 11:20 PM — Sep 2 11:50 PM, Thessaloniki, Weather by CustomWeather, © 2014

Note: Actual official high and low records may vary slightly from our data, if they occured in-between our weather recording intervals... More about our weather records

Advertising

Thessaloniki weather history for previous 24 hours

 ConditionsComfort  
Time TempWeatherWind HumidityBarometerVisibility
11:50 PM
Sep 2
66 °FPassing clouds.No wind88%29.68 "HgN/A
11:20 PM66 °FPassing clouds.5 mph88%29.68 "HgN/A
10:50 PM68 °FPassing clouds.5 mph88%29.68 "HgN/A
10:20 PM68 °FPassing clouds.6 mph88%29.68 "HgN/A
9:50 PM68 °FThunderstorms. Passing clouds.8 mph88%29.68 "HgN/A
9:20 PM66 °FThunderstorms. Passing clouds.5 mph94%29.65 "HgN/A
8:50 PM66 °FThunderstorms. Partly sunny.7 mph94%29.65 "HgN/A
8:20 PM66 °FThunderstorms. Partly sunny.7 mph88%29.65 "HgN/A
7:50 PM64 °FThunderstorms. Partly sunny.9 mph94%29.65 "Hg4 mi
7:20 PM64 °FThunderstorms. Partly sunny.9 mph94%29.68 "Hg4 mi
6:50 PM68 °FThunderstorms. Mostly cloudy.14 mph83%29.68 "Hg4 mi
6:20 PM72 °FThunderstorms. Mostly cloudy.14 mph78%29.65 "Hg4 mi
5:50 PM77 °FThunderstorms. Mostly cloudy.7 mph65%29.62 "HgN/A
5:20 PM79 °FThundershowers. Partly sunny.9 mph58%29.62 "HgN/A
4:50 PM79 °FPartly sunny.14 mph54%29.62 "HgN/A
4:20 PM81 °FPartly sunny.20 mph48%29.62 "HgN/A
3:50 PM82 °FBroken clouds.16 mph51%29.65 "HgN/A
3:20 PM79 °FBroken clouds.12 mph61%29.65 "HgN/A
2:50 PM75 °FBroken clouds.17 mph78%29.65 "HgN/A
1:50 PM72 °FThunderstorms. Mostly cloudy.14 mph83%29.68 "HgN/A
1:20 PM73 °FThunderstorms. Mostly cloudy.16 mph78%29.65 "Hg5 mi
12:50 PM81 °FLight rain. More clouds than sun.15 mph51%29.68 "HgN/A
12:20 PM77 °FLight rain. Broken clouds.10 mph65%29.68 "HgN/A
11:50 AM77 °FLight rain. Broken clouds.7 mph65%29.68 "HgN/A
11:20 AM81 °FLight rain. Broken clouds.17 mph48%29.68 "HgN/A
10:50 AM81 °FBroken clouds.17 mph48%29.68 "HgN/A
10:20 AM81 °FBroken clouds.13 mph48%29.68 "HgN/A
9:50 AM77 °FBroken clouds.3 mph57%29.68 "HgN/A
9:20 AM75 °FBroken clouds.No wind57%29.68 "HgN/A
8:50 AM73 °FBroken clouds.No wind61%29.68 "HgN/A
8:20 AM72 °FBroken clouds.3 mph65%29.71 "HgN/A
7:50 AM70 °FPartly cloudy.No wind64%29.71 "HgN/A
7:20 AM68 °FPartly cloudy.2 mph73%29.71 "HgN/A
6:50 AM66 °FPassing clouds.2 mph78%29.71 "HgN/A
6:20 AM66 °FPassing clouds.5 mph78%29.68 "HgN/A
5:50 AM68 °FPassing clouds.5 mph73%29.68 "HgN/A
5:20 AM70 °FPassing clouds.3 mph69%29.71 "HgN/A
4:50 AM70 °FPassing clouds.5 mph73%29.71 "HgN/A
4:20 AM70 °FPassing clouds.3 mph73%29.71 "HgN/A
3:50 AM70 °FPassing clouds.6 mph78%29.71 "HgN/A
3:20 AM72 °FPassing clouds.5 mph73%29.71 "HgN/A
2:50 AM73 °FPassing clouds.2 mph69%29.74 "HgN/A
2:20 AM73 °FPassing clouds.2 mph69%29.74 "HgN/A
1:50 AM73 °FPassing clouds.2 mph69%29.74 "HgN/A
1:20 AM75 °FPassing clouds.No wind65%29.74 "HgN/A
Weather by CustomWeather, © 2014

See weather overviewHow to use our weather pages